STARLINK-11747, 64322

Orbit data source: Space-Track

STARLINK-11747, 64322 is a payload satellite owned by SpaceX/Seattle (US) in LEO that was launched on Tue, 10 Jun 2025 UTC via an FALCON 9 launch vehicle from the Air Force Eastern Test Range (AFETR). Payload-class satellites include a variety of spacecraft equipped with specific instruments for various scientific and technological missions. These include communications satellites like Starlink; space stations such as the ISS; scientific satellites like the Hubble; Earth observation satellites from companies like Planet Labs, Umbra, and HawkEye 360; GPS; miniature CubeSats for education and research; and military/defense satellites.

Loading next visibility...
Identifier
64322, 2025-124F
Orbit
LEO
Last TLE update
11 hours ago
Origin
Manufacturer
SpaceX/Seattle
Mission
Operational spacecraft
Bus & Motor
STARLINK V2M, Unknown motor
Mass
730 kg wet, ~700 kg dry
Launch date (UTC)
2025-06-10 (3 weeks ago)
Launch vehicle
FALCON 9
Launch site
Air Force Eastern Test Range (AFETR)
Object type
Payload
Rocket body
Debris
Shape & HBR
Unknown
Radar Cross Section
Large (>1 m²)

Expand to show TLE details & history

TLE from 11 hours ago
0 STARLINK-11747
1 64322U 25124F   25182.12880067  .00187803  00000-0  10568-2 0  9990
2 64322  43.0003 106.1575 0001570 265.7505  94.3186 15.77890841  4428
Epoch: 2025-07-01T03:05Z
TLE epoch observation values (Epoch: 2025-07-01T03:05:28.377Z)
Latitude
-0.00003°
Longitude
140.36054°
Altitude
336.268 km
Speed
7.709 km/s
True Right ascension
07h 04m 37s
True Declination
0° 00' 00"
Sunlit
Object was in daylight at epoch
Visualization orbit readout
Latitude
27.96475°
Longitude
172.09478°
Altitude
336.91 km
Speed
7.711 km/s
Apparent Right ascension
11h 08m 25s
Apparent Declination
-5° 52' 36"
Sunlit
Object is in daylight
Visualization observer readout
Local Sidereal Time
01:33:25
Azimuth
53.441° ENE
Elevation
-42.919°
Doppler factor
1
Orbital elements
Apogee altitude
339.459 km
Perigee altitude
337.35 km
Semi-major axis
6,716.542 km
Eccentricity
0.00016
Inclination
43.0003°
RAAN
106.1575°
Arg. of periapsis
265.7505°
True anomaly
Unknown
Mean anomaly
94.3186°
Eccentric anomaly
Unknown
Mean motion
3.94298 °/min
Orbital period
91.3 mins
BSTAR
0.0010568
Loading maneuver chart data...
Loading SW <> Apogee altitude chart data...
Loading historical data...
Loading historical data...
Loading historical data...
Loading historical data...
Loading historical data...
Loading historical data...
Loading historical data...

STARLINK-11747 Visibility forecast

Observer location: undefined°, undefined°

Span
Click to sort rows by Start time (UTC) header in descending order
Start Az.
Max El. time (UTC)
Max El. Az.
Max El.
End time (UTC)
End Az.
4 mins2025-07-02 02:17:24.811Z295.677° NW2025-07-02 02:19:24.811Z50.79° ENE40.514°2025-07-02 02:21:24.811Z95.325° ESE
|